Weather in Torshavn

Denmark     62°00′47″N   6°46′44″W
temp.,
°C
wind,
m/s
gust,
m/s
humid.,
%
clouds,
%
prec.,
mm/h
press.,
hPa
HPBL,
m
26 october, tue
tue2601:00+8wsw457591 0.2 996590
04:00+8wsw797228 0.2 9971055
07:00+8ssw577697 0.2 997688
10:00+8sse7881100 0.0 995712
13:00+9se101391100 0.1 992944
16:00+9se142096100 7.5 9861150
19:00+11ssw111796100 15.2 981553
22:00+10wsw13188746 0.1 984771
27 october, wed
wed2701:00+10wsw12168819 0.1 986752
04:00+10sw10149157 0.1 988618
07:00+10ssw10159363 0.3 988619
10:00+10ssw12189390 1.0 988687
13:00+10sw1115919 2.9 988661
16:00+9sw11148610 0.3 990848
19:00+8sw7118165 0.3 992838
22:00+9ssw11148596 0.4 9921114
28 october, thu
thu2801:00+8sw71283100 4.4 991871
04:00+9ssw7108393 0.2 989662
07:00+9ssw9128387 0.9 989999
10:00+9ssw913823 0.6 990966
13:00+9s1013858 0.9 990813
16:00+10s11148313 0.7 988842
19:00+9s11158419 1.4 989961
22:00+9s11158787 0.9 988916
29 october, fri
fri2901:00+9s11148970 1.8 988805
04:00+9ssw10148941 1.0 988689
07:00+9s8128930 1.2 989646
10:00+9s912898 0.3 989600
13:00+9s913905 0.8 989643
16:00+9ssw10138923 0.4 988828
19:00+9ssw57885 0.6 989444
22:00+9ssw468715 0.2 990437
30 october, sat
sat3001:00+9s468873 0.3 990375
04:00+9s689089 0.8 989516
07:00+9s5790100 1.4 989510
10:00+9s4689100 0.6 989431
13:00+9s4685100 1.1 989363
16:00+9ssw458669 0.4 989308
19:00+8sw568397 0.4 991474
22:00+8sw458252 0.0 992515